This is the latest recevied weather packets stored in our database for station/object W4CKA. If no packets are shown the sender has not sent any weather packets the latest 10 day(s).
| Time | Temp. | Humidity | Pressure | Rain* | Wind** | Luminosity | Snow |
|---|---|---|---|---|---|---|---|
| 1777470149 | 18.33° C | 91% | 1055 hPa | 0 mm | - | 56 W/m² | - |
| 1777469547 | 18.33° C | 92% | 1054.9 hPa | 0 mm | - | 87 W/m² | - |
| 1777468942 | 18.33° C | 93% | 1054.8 hPa | 0 mm | - | 94 W/m² | - |
| 1777468342 | 17.78° C | 93% | 1054.9 hPa | 0 mm | - | 94 W/m² | - |
| 1777467740 | 17.78° C | 94% | 1054.9 hPa | 0 mm | - | 120 W/m² | - |
| 1777467136 | 17.78° C | 97% | 1055 hPa | 0 mm | - | 70 W/m² | - |
| 1777466532 | 17.78° C | 98% | 1054.9 hPa | 0 mm | - | 106 W/m² | - |
| 1777465930 | 17.22° C | 98% | 1055 hPa | 0 mm | - | 61 W/m² | - |
| 1777465328 | 17.22° C | 98% | 1055.1 hPa | 0 mm | - | 50 W/m² | - |
| 1777464728 | 16.67° C | 99% | 1055.3 hPa | 0 mm | - | 45 W/m² | - |
| 1777464126 | 16.67° C | 99% | 1055.4 hPa | 0 mm | - | 22 W/m² | - |
| 1777463527 | 16.67° C | 99% | 1055.1 hPa | 0 mm | - | 18 W/m² | - |
| 1777462924 | 16.67° C | 99% | 1054.8 hPa | 0 mm | - | 18 W/m² | - |
| 1777462321 | 16.67° C | 99% | 1054.9 hPa | 0 mm | - | 24 W/m² | - |
| 1777461720 | 16.11° C | 99% | 1054.7 hPa | 0 mm | - | 12 W/m² | - |
| 1777461117 | 16.67° C | 98% | 1054.9 hPa | 0 mm | - | 1 W/m² | - |
| 1777460515 | 16.67° C | 98% | 1054.5 hPa | 0 mm | - | 0 W/m² | - |
| 1777459914 | 16.67° C | 98% | 1054.6 hPa | 0 mm | - | 0 W/m² | - |
| 1777459314 | 16.67° C | 98% | 1054.4 hPa | 0 mm | - | 0 W/m² | - |
| 1777458709 | 16.11° C | 98% | 1054.3 hPa | 0 mm | - | 0 W/m² | - |
| 1777458107 | 16.67° C | 98% | 1054.6 hPa | 0 mm | - | 0 W/m² | - |
| 1777457503 | 16.67° C | 97% | 1054.7 hPa | 0 mm | - | 0 W/m² | - |
| 1777456900 | 16.67° C | 97% | 1055.1 hPa | 0 mm | - | 0 W/m² | - |
| 1777456297 | 16.67° C | 97% | 1055.3 hPa | 0 mm | - | 0 W/m² | - |
| 1777455696 | 16.67° C | 97% | 1055.3 hPa | 0 mm | - | 0 W/m² | - |
* Rain latest hour (hover to see other rain measurements)
** Current wind speed in m/s (hover to see current wind gust speed)